Location: Blandford
(50.8667°N, 2.1667°W)
Time: 05:53:19
(UTC+00:00)

STARLINK-1243 - Pass Details

Date: 09 April 2020
Orbit: 549 x 550 km, 53.0° (Epoch: 29 May)

Event Time Altitude Azimuth Distance (km) Brightness Sun altitude
Rises 19:20:48 0° 284° (WNW) 2,725 10.0 -4.7°
Reaches altitude 10° 19:23:03 10° 287° (WNW) 1,830 8.2 -5.1°
Maximum altitude 19:27:12 75° 13° (NNE) 576 3.8 -5.7°
Drops below altitude 10° 19:31:22 10° 99° (E) 1,827 5.6 -6.3°
Enters shadow 19:31:51 - 100° (E) 2,020 5.8 -6.4°
